This is the latest recevied weather packets stored in our database for station/object KJ5JYX. If no packets are shown the sender has not sent any weather packets the latest 10 day(s).
| Time | Temp. | Humidity | Pressure | Rain* | Wind** | Luminosity | Snow |
|---|---|---|---|---|---|---|---|
| 1777945578 | 24.44° C | 71% | 1009.5 hPa | 0 mm | - | 0 W/m² | - |
| 1777945275 | 24.44° C | 71% | 1009.3 hPa | 0 mm | - | 0 W/m² | - |
| 1777944973 | 24.44° C | 71% | 1009.3 hPa | 0 mm | - | 0 W/m² | - |
| 1777944670 | 24.44° C | 70% | 1009.5 hPa | 0 mm | - | 0 W/m² | - |
| 1777944368 | 24.44° C | 70% | 1009.3 hPa | 0 mm | - | 0 W/m² | - |
| 1777944065 | 25° C | 70% | 1009 hPa | 0 mm | - | 1 W/m² | - |
| 1777943760 | 25° C | 70% | 1009.2 hPa | 0 mm | - | 1 W/m² | - |
| 1777943458 | 25° C | 70% | 1009.3 hPa | 0 mm | - | 2 W/m² | - |
| 1777943153 | 25° C | 69% | 1009.4 hPa | 0 mm | - | 4 W/m² | - |
| 1777942850 | 25.56° C | 68% | 1009.3 hPa | 0 mm | - | 6 W/m² | - |
| 1777942546 | 25.56° C | 67% | 1009.5 hPa | 0 mm | - | 9 W/m² | - |
| 1777942244 | 25.56° C | 67% | 1009.6 hPa | 0 mm | - | 12 W/m² | - |
| 1777941941 | 25.56° C | 66% | 1009.5 hPa | 0 mm | - | 13 W/m² | - |
| 1777941637 | 25.56° C | 66% | 1009.4 hPa | 0 mm | - | 15 W/m² | - |
| 1777941335 | 26.11° C | 66% | 1009.4 hPa | 0 mm | - | 18 W/m² | - |
| 1777941032 | 26.11° C | 65% | 1009.3 hPa | 0 mm | - | 23 W/m² | - |
| 1777940732 | 26.11° C | 65% | 1009.3 hPa | 0 mm | - | 26 W/m² | - |
| 1777940432 | 26.11° C | 66% | 1009.2 hPa | 0 mm | - | 26 W/m² | - |
| 1777940128 | 26.11° C | 64% | 1009.4 hPa | 0 mm | - | 29 W/m² | - |
| 1777939825 | 26.67° C | 65% | 1009.2 hPa | 0 mm | - | 31 W/m² | - |
| 1777939523 | 26.67° C | 64% | 1009.5 hPa | 0 mm | - | 36 W/m² | - |
| 1777939220 | 26.67° C | 64% | 1009.4 hPa | 0 mm | - | 46 W/m² | - |
| 1777938917 | 26.67° C | 65% | 1009.3 hPa | 0 mm | - | 47 W/m² | - |
| 1777938613 | 26.67° C | 65% | 1009.3 hPa | 0 mm | - | 33 W/m² | - |
| 1777938310 | 26.67° C | 65% | 1009.3 hPa | 0 mm | - | 36 W/m² | - |
* Rain latest hour (hover to see other rain measurements)
** Current wind speed in m/s (hover to see current wind gust speed)